Location: Unspecified
(47.6580°N, 23.5876°E)
Time: 16:27:19
(UTC+03:00)

ISS - Pass Details

Date: 04 October 2015
Orbit: 407 x 418 km, 51.6° (Epoch: 20 June)

Event Time Altitude Azimuth Distance (km) Brightness Sun altitude
Rises 20:02:58 0° 286° (WNW) 2,414 2.0 -11.4°
Reaches altitude 10° 20:05:37 10° 266° (W) 1,521 0.5 -11.9°
Maximum altitude 20:07:53 17° 224° (SW) 1,149 -1.1 -12.3°
Drops below altitude 10° 20:10:08 10° 181° (S) 1,485 -1.0 -12.6°
Enters shadow 20:12:10 - 163° (SSE) 2,148 -0.4 -13.0°
